#timestamp,LO_Frequency,Hit,StdDev 
1549314015.6,286046998.9,N
1549314035.4,286046998.9,N
1549314055.2,286047001.1,N
1549314075.1,286047000.3,N
1549314076.0,286047000.3,N
1549314095.8,286047000.4,N
1549314115.6,286046998.8,N
1549314135.5,286046998.2,N
1549314155.3,286046998.8,N
1549314175.2,286046998.7,N
1549314195.9,286046999.4,N
1549314215.7,286046997.2,N
1549314235.6,286046997.5,N
1549314255.4,286046995.5,Y
1549314275.2,286046997.0,P
1549314295.1,286046997.2,N
1549314296.0,286046997.2,P
1549314315.8,286046996.6,Y
1549314335.7,286047000.2,P
1549314355.5,286047004.0,P
1549314375.3,286047004.3,N
1549314395.2,286047002.6,N
1549314415.0,286047000.3,N
1549314415.9,286047000.3,N
1549314435.8,286046999.4,N
1549314455.6,286046997.3,N
1549314475.4,286046995.7,N
1549314495.3,286046995.0,N
1549314515.1,286046997.4,N
1549314535.8,286046997.3,N
1549314555.7,286046997.3,N
1549314575.5,286046997.1,N
1549314595.4,286046999.4,N
1549314615.2,286046997.5,N
1549314635.0,286046995.0,N
1549314635.9,286046995.0,N
1549314655.8,286046995.2,N
1549314675.6,286046998.0,N
1549314695.4,286046995.3,N
1549314715.3,286046996.3,N
1549314735.1,286046995.7,N
1549314755.9,286046993.5,N
1549314775.7,286046993.3,N
1549314795.5,286046996.2,N
1549314815.4,286046997.9,N
1549314835.2,286046994.0,N
1549314855.0,286046994.7,N
1549314855.9,286046994.7,N
1549314875.8,286046991.7,N
1549314895.6,286046994.8,N
1549314915.5,286046992.6,N
1549314935.3,286046991.8,Y
1549314955.1,286046995.8,P
1549314975.9,286046993.4,P
1549314995.7,286046996.1,P
1549315015.6,286046994.9,Y
1549315035.4,286047000.7,P
1549315055.2,286047001.2,N
1549315075.1,286047000.3,N
1549315076.0,286047000.3,N
1549315095.8,286046998.2,N
1549315115.6,286046998.5,N
1549315135.5,286047000.4,N
1549315155.3,286047000.8,N
1549315175.2,286047000.8,N
1549315195.9,286047000.1,N
1549315215.7,286047000.2,N
1549315235.6,286047001.1,N
1549315255.4,286047002.1,N
1549315275.2,286047001.7,N
1549315295.1,286047002.3,N
1549315296.0,286047002.3,N
1549315315.8,286047001.0,N
1549315335.7,286047000.2,N
1549315355.5,286047000.5,N
1549315375.3,286046998.4,N
1549315395.2,286047000.5,N
1549315415.0,286047001.2,N
1549315415.9,286047001.2,N
1549315435.8,286047000.2,N
1549315455.6,286047000.0,N
1549315475.4,286046998.3,N
1549315495.3,286046999.5,N
1549315515.1,286046998.7,N
1549315535.8,286047000.9,N
1549315555.7,286046998.6,N
1549315575.5,286046996.8,N
1549315595.4,286046996.9,N
1549315615.2,286046997.1,N
1549315635.0,286046997.1,N
1549315635.9,286046997.1,N
1549315655.8,286046999.4,N
1549315675.6,286046996.6,N
1549315695.5,286046998.6,N
1549315715.3,286047002.4,N
1549315735.1,286047002.4,N
1549315755.9,286046999.9,N
1549315775.7,286047002.3,N
1549315795.5,286047002.1,N
1549315815.4,286046999.7,N
1549315835.2,286047000.0,N
1549315855.1,286047001.1,N
1549315856.0,286047001.1,N
1549315875.1,286046998.5,N
1549315876.0,286046998.5,N
1549315895.8,286046998.5,N
1549315915.7,286046999.6,N
1549315935.5,286046999.0,N
1549315955.3,286046997.9,N
1549315975.2,286046997.0,N
1549315995.9,286046999.2,N
1549316015.7,286046999.4,N
1549316035.6,286046999.1,N
1549316055.4,286046996.5,N
1549316075.3,286046997.1,N
1549316095.1,286046997.4,N
1549316096.0,286046997.4,N
1549316115.8,286046996.9,N
1549316135.7,286046998.4,N
1549316155.5,286047000.7,N
1549316175.3,286046999.9,N
1549316195.2,286047000.1,N
1549316215.0,286047001.0,N
1549316215.9,286047001.0,N
1549316235.8,286046998.8,N
1549316255.6,286047000.3,N
1549316275.4,286047000.7,N
1549316295.3,286047000.7,N
1549316315.1,286047001.1,N
1549316335.9,286046998.3,N
1549316355.7,286046998.6,N
1549316375.5,286047000.4,N
1549316395.4,286047000.4,N
1549316415.2,286047000.3,N
1549316435.1,286047000.8,N
1549316436.0,286047000.8,N
1549316455.8,286047000.8,N
1549316475.6,286046999.9,N
1549316495.5,286047002.8,N
1549316515.3,286047002.7,N
1549316535.1,286047002.6,N
1549316555.9,286047001.7,N
1549316575.7,286047003.7,N
1549316595.6,286047003.0,N
1549316615.4,286047005.1,N
1549316635.2,286047005.5,N
1549316655.1,286047004.5,N
1549316656.0,286047004.5,N
1549316675.8,286047006.9,Y
1549316695.7,286047006.0,P
1549316715.5,286047005.5,N
1549316735.3,286047005.6,N
1549316755.2,286047006.0,Y
1549316775.0,286047001.1,P
1549316775.9,286047001.1,N
1549316795.8,286046998.3,N
1549316815.6,286047001.2,N
1549316835.4,286046998.2,N
1549316855.3,286047000.5,N
1549316875.1,286047000.7,N
1549316895.8,286047000.6,N
1549316915.7,286046999.7,N
1549316935.5,286047000.1,N
1549316955.4,286047000.5,N
1549316975.2,286047000.7,N
1549316995.0,286047001.1,N
1549316995.9,286047001.1,N
1549317015.8,286047000.5,N
1549317035.6,286046998.6,N
1549317055.4,286046998.3,N
1549317075.3,286047002.7,N
1549317095.1,286047000.0,N
1549317115.9,286047000.1,N
1549317135.7,286047001.4,N
1549317155.5,286047001.7,N
1549317175.4,286047001.6,N
1549317195.2,286047004.3,Y
1549317215.0,286047002.2,P
1549317216.0,286047002.2,N
1549317235.8,286047002.8,P
1549317255.6,286047002.4,N
1549317275.5,286047002.8,Y
1549317295.3,286046998.7,P
1549317315.1,286046998.3,N
1549317335.9,286046998.3,N
1549317355.7,286046998.2,N
1549317375.6,286046999.2,N
1549317395.4,286046999.0,N
1549317415.2,286046999.5,N
1549317435.1,286046999.0,N
1549317436.0,286046999.0,N
1549317455.8,286046999.4,N
1549317475.6,286046999.2,N
1549317495.5,286046999.3,N
1549317515.3,286047000.5,N
1549317535.2,286047000.3,N
1549317555.9,286047000.7,N
1549317575.7,286046998.7,N
1549317595.6,286046998.6,N
